FIN1772 LIPE-EFHK

Flight info

Callsign FIN1772
Flight time 2h 52m
Altitude 34000
Route LUMAV L12 VIC DCT MOBDO/N0465F330 DCT MALUG DCT PINQI/N0464F350 DCT APRAQ DCT HDO DCT POZUM DCT DOSAL DCT PENOR DCT ALAMI DCT OKEVU DCT EVADI Y370 DIVAM
Aircraft B738/M-SDFGHIJ1RWXYZ/LB1

Departure

Time 2026-04-23 08:43
Airport Bologna Guglielmo Marconi Airport (LIPE)

Arrival

Time 2026-04-23 11:35
Airport Helsinki Vantaa Airport (EFHK)
Time Latitude Longitude Altitude Speed Heading
2026-04-23 07:30 44.53069 11.29316 129 ft 0 kts 207°
2026-04-23 08:33 44.53072 11.29318 129 ft 3 kts 207°
2026-04-23 08:33 44.53095 11.29335 124 ft 4 kts 210°
2026-04-23 08:33 44.53116 11.29352 124 ft 4 kts 243°
2026-04-23 08:34 44.53113 11.29376 126 ft 4 kts 297°
2026-04-23 08:34 44.53103 11.29404 124 ft 4 kts 296°
2026-04-23 08:34 44.53098 11.29418 125 ft 1 kts 297°
2026-04-23 08:36 44.53099 11.29416 124 ft 2 kts 297°
2026-04-23 08:37 44.53120 11.29372 124 ft 6 kts 326°
2026-04-23 08:37 44.53162 11.29361 126 ft 7 kts 330°
2026-04-23 08:37 44.53196 11.29284 127 ft 11 kts 296°
2026-04-23 08:37 44.53230 11.29188 125 ft 11 kts 297°
2026-04-23 08:38 44.53264 11.29094 126 ft 11 kts 297°
2026-04-23 08:38 44.53297 11.29003 129 ft 10 kts 296°
2026-04-23 08:38 44.53328 11.28916 127 ft 10 kts 297°
2026-04-23 08:38 44.53359 11.28830 128 ft 10 kts 297°
2026-04-23 08:39 44.53403 11.28711 125 ft 17 kts 297°
2026-04-23 08:39 44.53464 11.28537 127 ft 23 kts 296°
2026-04-23 08:39 44.53536 11.28340 128 ft 22 kts 296°
2026-04-23 08:39 44.53605 11.28150 127 ft 22 kts 297°
2026-04-23 08:40 44.53671 11.27970 125 ft 21 kts 296°
2026-04-23 08:40 44.53733 11.27794 126 ft 20 kts 297°
2026-04-23 08:40 44.53794 11.27623 129 ft 20 kts 297°
2026-04-23 08:40 44.53856 11.27453 127 ft 19 kts 296°
2026-04-23 08:41 44.53934 11.27313 128 ft 18 kts 323°
2026-04-23 08:41 44.54035 11.27217 127 ft 12 kts 331°
2026-04-23 08:41 44.54101 11.27250 125 ft 11 kts 58°
2026-04-23 08:41 44.54090 11.27348 127 ft 10 kts 116°
2026-04-23 08:42 44.54059 11.27435 126 ft 0 kts 116°
2026-04-23 08:42 44.54057 11.27441 127 ft 1 kts 116°
2026-04-23 08:42 44.54054 11.27450 126 ft 1 kts 116°
2026-04-23 08:42 44.53981 11.27654 124 ft 55 kts 116°
2026-04-23 08:43 44.53720 11.28375 127 ft 115 kts 116°
2026-04-23 08:43 44.53444 11.29139 127 ft 149 kts 117°
2026-04-23 08:43 44.52918 11.30584 337 ft 176 kts 117°
2026-04-23 08:43 44.52425 11.32169 1034 ft 177 kts 99°
2026-04-23 08:44 44.52701 11.33795 1617 ft 182 kts 49°
2026-04-23 08:44 44.53780 11.34633 2253 ft 182 kts 14°
2026-04-23 08:44 44.54991 11.35063 2913 ft 183 kts 19°
2026-04-23 08:44 44.56193 11.35644 3552 ft 185 kts 22°
2026-04-23 08:45 44.57445 11.36371 3905 ft 201 kts 26°
2026-04-23 08:45 44.58723 11.37234 4386 ft 205 kts 28°
2026-04-23 08:45 44.59990 11.38169 4943 ft 206 kts 30°
2026-04-23 08:45 44.61257 11.39149 5457 ft 214 kts 30°
2026-04-23 08:46 44.62625 11.40233 5634 ft 238 kts 30°
2026-04-23 08:46 44.64124 11.41438 5953 ft 255 kts 30°
2026-04-23 08:46 44.65641 11.42782 6588 ft 259 kts 38°
2026-04-23 08:46 44.67029 11.44391 7348 ft 258 kts 40°
2026-04-23 08:47 44.68381 11.46040 8082 ft 259 kts 41°
2026-04-23 08:47 44.69746 11.47705 8791 ft 260 kts 40°
2026-04-23 08:47 44.71124 11.49368 9516 ft 261 kts 40°
2026-04-23 08:47 44.72509 11.51030 10230 ft 262 kts 40°
2026-04-23 08:48 44.73903 11.52693 10867 ft 264 kts 40°
2026-04-23 08:48 44.75341 11.54403 11172 ft 280 kts 40°
2026-04-23 08:48 44.76886 11.56237 11334 ft 300 kts 40°
2026-04-23 08:48 44.78533 11.58192 11487 ft 319 kts 40°
2026-04-23 08:49 44.80299 11.60225 11612 ft 338 kts 35°
2026-04-23 08:49 44.82507 11.61616 11733 ft 357 kts 15°
2026-04-23 08:49 44.85020 11.62005 11947 ft 372 kts
2026-04-23 08:49 44.87630 11.62171 12393 ft 378 kts
2026-04-23 08:50 44.90268 11.62323 12960 ft 380 kts
2026-04-23 08:50 44.92918 11.62483 13549 ft 382 kts
2026-04-23 08:50 44.95584 11.62656 14106 ft 386 kts
2026-04-23 08:50 44.98275 11.62843 14624 ft 389 kts
2026-04-23 08:51 45.00953 11.63036 15159 ft 391 kts
2026-04-23 08:51 45.03713 11.63238 15717 ft 393 kts
2026-04-23 08:51 45.06424 11.63438 16231 ft 397 kts
2026-04-23 08:51 45.09198 11.63643 16746 ft 400 kts
2026-04-23 08:52 45.11976 11.63848 17247 ft 403 kts
2026-04-23 08:52 45.14790 11.64056 17754 ft 406 kts
2026-04-23 08:52 45.17626 11.64264 18250 ft 409 kts
2026-04-23 08:52 45.20481 11.64470 18665 ft 414 kts
2026-04-23 08:53 45.23411 11.64681 19059 ft 417 kts
2026-04-23 08:53 45.26278 11.64887 19493 ft 419 kts
2026-04-23 08:53 45.29200 11.65097 19919 ft 422 kts
2026-04-23 08:53 45.32141 11.65309 20286 ft 425 kts
2026-04-23 08:54 45.35109 11.65524 20644 ft 429 kts
2026-04-23 08:54 45.38142 11.65743 21023 ft 431 kts
2026-04-23 08:54 45.41103 11.65957 21472 ft 432 kts
2026-04-23 08:54 45.44115 11.66175 21879 ft 434 kts
2026-04-23 08:55 45.47183 11.66398 22243 ft 437 kts
2026-04-23 08:55 45.50186 11.66616 22596 ft 440 kts
2026-04-23 08:55 45.53290 11.66842 22968 ft 442 kts
2026-04-23 08:55 45.56366 11.67066 23325 ft 444 kts
2026-04-23 08:56 45.59415 11.67288 23624 ft 446 kts
2026-04-23 08:56 45.62528 11.67516 23908 ft 449 kts
2026-04-23 08:56 45.65651 11.67830 24174 ft 450 kts
2026-04-23 08:56 45.68766 11.68313 24458 ft 451 kts 11°
2026-04-23 08:57 45.71893 11.68872 24730 ft 453 kts 11°
2026-04-23 08:57 45.75021 11.69453 24996 ft 455 kts 11°
2026-04-23 08:57 45.78166 11.70031 25236 ft 457 kts 11°
2026-04-23 08:57 45.81328 11.70600 25453 ft 460 kts 11°
2026-04-23 08:58 45.84511 11.71160 25743 ft 461 kts 11°
2026-04-23 08:58 45.87698 11.71710 26131 ft 460 kts 11°
2026-04-23 08:58 45.90876 11.72256 26452 ft 460 kts 11°
2026-04-23 08:58 45.94054 11.72802 26772 ft 460 kts 11°
2026-04-23 08:59 45.97218 11.73344 27131 ft 457 kts 11°
2026-04-23 08:59 46.00380 11.73887 27394 ft 459 kts 11°
2026-04-23 08:59 46.03553 11.74437 27678 ft 460 kts 11°
2026-04-23 08:59 46.06723 11.74985 28053 ft 458 kts 11°
2026-04-23 09:00 46.09884 11.75530 28481 ft 456 kts 11°
2026-04-23 09:00 46.13020 11.76074 28929 ft 453 kts 11°
2026-04-23 09:00 46.16159 11.76620 29266 ft 454 kts 12°
2026-04-23 09:00 46.19294 11.77166 29565 ft 455 kts 12°
2026-04-23 09:01 46.22434 11.77712 29949 ft 454 kts 12°
2026-04-23 09:01 46.25571 11.78258 30367 ft 453 kts 12°
2026-04-23 09:01 46.28691 11.78801 30692 ft 452 kts 12°
2026-04-23 09:01 46.31809 11.79346 30980 ft 451 kts 12°
2026-04-23 09:02 46.34923 11.79890 31226 ft 451 kts 12°
2026-04-23 09:02 46.38020 11.80531 31494 ft 446 kts 19°
2026-04-23 09:02 46.40830 11.82237 31777 ft 434 kts 37°
2026-04-23 09:02 46.43186 11.84903 32109 ft 426 kts 47°
2026-04-23 09:03 46.45041 11.88199 32358 ft 422 kts 60°
2026-04-23 09:03 46.46459 11.91916 32627 ft 421 kts 64°
2026-04-23 09:03 46.47797 11.95690 32910 ft 420 kts 64°
2026-04-23 09:03 46.49116 11.99468 33203 ft 419 kts 64°
2026-04-23 09:04 46.50434 12.03232 33488 ft 418 kts 64°
2026-04-23 09:04 46.51761 12.06983 33728 ft 418 kts 64°
2026-04-23 09:04 46.53098 12.10732 33969 ft 418 kts 64°
2026-04-23 09:04 46.54420 12.14422 34247 ft 417 kts 63°
2026-04-23 09:05 46.57127 12.21962 34313 ft 418 kts 63°
2026-04-23 09:05 46.59804 12.29432 34299 ft 415 kts 63°
2026-04-23 09:06 46.62436 12.36801 34299 ft 412 kts 63°
2026-04-23 09:06 46.65086 12.44243 34295 ft 411 kts 63°
2026-04-23 09:07 46.67711 12.51634 34309 ft 410 kts 63°
2026-04-23 09:07 46.70945 12.58459 34298 ft 414 kts 46°
2026-04-23 09:08 46.75648 12.63367 34268 ft 423 kts 29°
2026-04-23 09:08 46.81017 12.66949 34269 ft 425 kts 28°
2026-04-23 09:09 46.86431 12.70500 34277 ft 428 kts 28°
2026-04-23 09:09 46.91861 12.74118 34264 ft 429 kts 28°
2026-04-23 09:10 47.00011 12.79619 34279 ft 430 kts 28°
2026-04-23 09:11 47.05408 12.83282 34307 ft 431 kts 28°
2026-04-23 09:11 47.10848 12.86983 34307 ft 429 kts 28°
2026-04-23 09:12 47.16247 12.90662 34291 ft 427 kts 28°
2026-04-23 09:12 47.21614 12.94329 34318 ft 425 kts 28°
2026-04-23 09:13 47.26974 12.97999 34332 ft 425 kts 28°
2026-04-23 09:13 47.32318 13.01667 34318 ft 423 kts 28°
2026-04-23 09:14 47.37642 13.05328 34321 ft 421 kts 28°
2026-04-23 09:14 47.42946 13.08985 34315 ft 420 kts 28°
2026-04-23 09:15 47.48234 13.12638 34317 ft 420 kts 28°
2026-04-23 09:15 47.53530 13.16306 34315 ft 421 kts 28°
2026-04-23 09:16 47.58826 13.19981 34324 ft 419 kts 28°
2026-04-23 09:16 47.64105 13.23652 34322 ft 418 kts 28°
2026-04-23 09:17 47.69369 13.27322 34300 ft 417 kts 28°
2026-04-23 09:17 47.74610 13.30982 34333 ft 415 kts 28°
2026-04-23 09:18 47.79806 13.34621 34332 ft 415 kts 28°
2026-04-23 09:18 47.85069 13.38316 34316 ft 416 kts 28°
2026-04-23 09:19 47.90290 13.41987 34315 ft 415 kts 28°
2026-04-23 09:19 47.95510 13.45668 34330 ft 415 kts 28°
2026-04-23 09:20 48.00726 13.49353 34335 ft 415 kts 28°
2026-04-23 09:20 48.05957 13.53057 34331 ft 415 kts 28°
2026-04-23 09:21 48.11137 13.56734 34336 ft 416 kts 28°
2026-04-23 09:21 48.16398 13.60475 34330 ft 416 kts 28°
2026-04-23 09:22 48.21585 13.64173 34331 ft 416 kts 28°
2026-04-23 09:22 48.26809 13.67906 34318 ft 416 kts 28°
2026-04-23 09:23 48.32028 13.71644 34332 ft 416 kts 28°
2026-04-23 09:23 48.37252 13.75394 34329 ft 416 kts 28°
2026-04-23 09:24 48.42474 13.79151 34325 ft 416 kts 28°
2026-04-23 09:24 48.47695 13.82916 34318 ft 417 kts 28°
2026-04-23 09:25 48.52917 13.86691 34310 ft 416 kts 28°
2026-04-23 09:25 48.58143 13.90477 34311 ft 416 kts 28°
2026-04-23 09:26 48.63360 13.94265 34291 ft 416 kts 28°
2026-04-23 09:26 48.68678 13.97732 34293 ft 419 kts 20°
2026-04-23 09:27 48.74460 13.99225 34310 ft 424 kts 10°
2026-04-23 09:27 48.80341 14.00005 34288 ft 424 kts
2026-04-23 09:28 48.85228 14.00666 34274 ft 424 kts 10°
2026-04-23 09:28 48.91094 14.01492 34285 ft 422 kts 10°
2026-04-23 09:29 48.96782 14.02312 34269 ft 420 kts 10°
2026-04-23 09:29 49.02477 14.03137 34282 ft 418 kts 10°
2026-04-23 09:30 49.08254 14.03978 34270 ft 417 kts 10°
2026-04-23 09:30 49.14026 14.04819 34272 ft 415 kts 10°
2026-04-23 09:31 49.19737 14.05652 34263 ft 414 kts 10°
2026-04-23 09:31 49.25502 14.06496 34270 ft 413 kts 10°
2026-04-23 09:32 49.31233 14.07336 34264 ft 413 kts 10°
2026-04-23 09:32 49.36946 14.08177 34267 ft 413 kts 10°
2026-04-23 09:33 49.42666 14.09020 34265 ft 413 kts 10°
2026-04-23 09:33 49.48389 14.09865 34259 ft 413 kts 10°
2026-04-23 09:34 49.54113 14.10712 34265 ft 413 kts 10°
2026-04-23 09:34 49.59842 14.11562 34264 ft 414 kts 10°
2026-04-23 09:35 49.65541 14.12415 34255 ft 414 kts 10°
2026-04-23 09:35 49.71267 14.13449 34260 ft 414 kts 11°
2026-04-23 09:36 49.76989 14.14557 34256 ft 414 kts 11°
2026-04-23 09:36 49.82713 14.15655 34239 ft 415 kts 11°
2026-04-23 09:37 49.88451 14.16744 34258 ft 415 kts 11°
2026-04-23 09:37 49.94189 14.17831 34241 ft 416 kts 11°
2026-04-23 09:38 49.99945 14.18922 34239 ft 416 kts 11°
2026-04-23 09:38 50.05688 14.20012 34243 ft 415 kts 11°
2026-04-23 09:39 50.11405 14.21100 34237 ft 413 kts 11°
2026-04-23 09:39 50.17096 14.22187 34237 ft 412 kts 11°
2026-04-23 09:40 50.22777 14.23274 34239 ft 411 kts 11°
2026-04-23 09:40 50.28445 14.24362 34235 ft 410 kts 11°
2026-04-23 09:41 50.34109 14.25452 34234 ft 410 kts 11°
2026-04-23 09:41 50.39764 14.26543 34238 ft 410 kts 11°
2026-04-23 09:42 50.45423 14.27637 34237 ft 410 kts 11°
2026-04-23 09:42 50.51044 14.28726 34234 ft 409 kts 11°
2026-04-23 09:43 50.56694 14.29823 34235 ft 409 kts 11°
2026-04-23 09:43 50.62388 14.30932 34231 ft 409 kts 11°
2026-04-23 09:44 50.68042 14.32035 34225 ft 410 kts 11°
2026-04-23 09:44 50.72851 14.32976 34229 ft 410 kts 11°
2026-04-23 09:45 50.72884 14.32982 34229 ft 410 kts 11°
2026-04-23 09:45 50.76545 14.33700 34229 ft 410 kts 11°
2026-04-23 09:46 50.82201 14.34811 34229 ft 410 kts 11°
2026-04-23 09:46 50.87864 14.35925 34224 ft 410 kts 11°
2026-04-23 09:47 50.93514 14.37104 34211 ft 408 kts 14°
2026-04-23 09:47 50.99017 14.39172 34225 ft 407 kts 17°
2026-04-23 09:48 51.04505 14.41413 34234 ft 407 kts 17°
2026-04-23 09:48 51.10001 14.43623 34227 ft 408 kts 17°
2026-04-23 09:49 51.15514 14.45807 34217 ft 408 kts 17°
2026-04-23 09:49 51.21021 14.47981 34226 ft 408 kts 17°
2026-04-23 09:50 51.26525 14.50158 34226 ft 408 kts 17°
2026-04-23 09:50 51.32034 14.52342 34222 ft 407 kts 17°
2026-04-23 09:51 51.37530 14.54528 34230 ft 407 kts 17°
2026-04-23 09:51 51.43029 14.56720 34228 ft 407 kts 17°
2026-04-23 09:52 51.48518 14.58913 34225 ft 406 kts 17°
2026-04-23 09:52 51.54000 14.61110 34223 ft 406 kts 17°
2026-04-23 09:53 51.59489 14.63315 34223 ft 406 kts 17°
2026-04-23 09:53 51.64972 14.65522 34229 ft 405 kts 17°
2026-04-23 09:54 51.70404 14.67714 34224 ft 405 kts 17°
2026-04-23 09:54 51.75897 14.69939 34227 ft 404 kts 17°
2026-04-23 09:55 51.81317 14.72144 34216 ft 405 kts 17°
2026-04-23 09:55 51.86783 14.74374 34219 ft 405 kts 18°
2026-04-23 09:56 51.92242 14.76607 34222 ft 405 kts 18°
2026-04-23 09:56 51.97714 14.78850 34229 ft 405 kts 18°
2026-04-23 09:57 52.03190 14.81100 34221 ft 406 kts 18°
2026-04-23 09:57 52.08667 14.83356 34226 ft 406 kts 18°
2026-04-23 09:58 52.14139 14.85616 34218 ft 406 kts 18°
2026-04-23 09:58 52.19607 14.87880 34221 ft 405 kts 18°
2026-04-23 09:59 52.25072 14.90149 34215 ft 405 kts 18°
2026-04-23 09:59 52.30535 14.92423 34218 ft 405 kts 18°
2026-04-23 10:00 52.35072 14.94315 34218 ft 405 kts 18°
2026-04-23 10:00 52.41440 14.96978 34217 ft 404 kts 18°
2026-04-23 10:01 52.46887 14.99263 34219 ft 404 kts 18°
2026-04-23 10:01 52.52334 15.01553 34215 ft 404 kts 18°
2026-04-23 10:02 52.57774 15.03846 34214 ft 404 kts 18°
2026-04-23 10:02 52.63211 15.06144 34213 ft 404 kts 18°
2026-04-23 10:03 52.68654 15.08450 34211 ft 404 kts 18°
2026-04-23 10:03 52.74089 15.10759 34216 ft 404 kts 18°
2026-04-23 10:04 52.79528 15.13076 34217 ft 404 kts 18°
2026-04-23 10:04 52.84972 15.15400 34210 ft 404 kts 18°
2026-04-23 10:05 52.90371 15.17711 34210 ft 403 kts 18°
2026-04-23 10:05 52.95797 15.20040 34210 ft 403 kts 18°
2026-04-23 10:06 53.01263 15.22393 34206 ft 403 kts 18°
2026-04-23 10:06 53.06656 15.24720 34206 ft 403 kts 17°
2026-04-23 10:07 53.12077 15.27064 34202 ft 403 kts 17°
2026-04-23 10:07 53.17498 15.29416 34202 ft 403 kts 17°
2026-04-23 10:08 53.22920 15.31774 34203 ft 403 kts 17°
2026-04-23 10:08 53.28337 15.34136 34199 ft 403 kts 17°
2026-04-23 10:09 53.36463 15.37690 34196 ft 402 kts 17°
2026-04-23 10:09 53.41785 15.40488 34193 ft 400 kts 25°
2026-04-23 10:10 53.46856 15.44319 34197 ft 400 kts 25°
2026-04-23 10:10 53.51927 15.48146 34193 ft 400 kts 25°
2026-04-23 10:11 53.57016 15.51974 34198 ft 401 kts 25°
2026-04-23 10:11 53.62116 15.55808 34198 ft 401 kts 25°
2026-04-23 10:12 53.67212 15.59647 34188 ft 402 kts 25°
2026-04-23 10:12 53.72308 15.63494 34194 ft 402 kts 25°
2026-04-23 10:13 53.76549 15.66705 34191 ft 402 kts 25°
2026-04-23 10:13 53.81657 15.70581 34194 ft 402 kts 25°
2026-04-23 10:14 53.86762 15.74466 34197 ft 403 kts 25°
2026-04-23 10:14 53.91874 15.78366 34195 ft 403 kts 25°
2026-04-23 10:15 53.96985 15.82275 34203 ft 403 kts 25°
2026-04-23 10:15 54.02091 15.86192 34197 ft 403 kts 25°
2026-04-23 10:16 54.07203 15.90123 34199 ft 403 kts 25°
2026-04-23 10:16 54.12297 15.94052 34202 ft 402 kts 25°
2026-04-23 10:17 54.17270 15.97898 34203 ft 402 kts 25°
2026-04-23 10:17 54.22365 16.01849 34208 ft 402 kts 24°
2026-04-23 10:18 54.27464 16.05813 34199 ft 402 kts 24°
2026-04-23 10:18 54.32558 16.09784 34196 ft 402 kts 24°
2026-04-23 10:19 54.37646 16.13762 34196 ft 402 kts 24°
2026-04-23 10:19 54.42737 16.17753 34194 ft 402 kts 24°
2026-04-23 10:20 54.47792 16.21727 34201 ft 402 kts 24°
2026-04-23 10:20 54.52903 16.25755 34193 ft 402 kts 24°
2026-04-23 10:21 54.57948 16.29742 34192 ft 402 kts 24°
2026-04-23 10:21 54.63028 16.33768 34190 ft 402 kts 24°
2026-04-23 10:22 54.68105 16.37803 34209 ft 402 kts 24°
2026-04-23 10:22 54.73179 16.41848 34200 ft 401 kts 24°
2026-04-23 10:23 54.78235 16.45888 34200 ft 400 kts 24°
2026-04-23 10:23 54.83278 16.49929 34184 ft 398 kts 24°
2026-04-23 10:24 54.88296 16.53962 34179 ft 397 kts 24°
2026-04-23 10:24 54.93308 16.58000 34179 ft 396 kts 24°
2026-04-23 10:25 54.98307 16.62039 34180 ft 396 kts 24°
2026-04-23 10:25 55.03301 16.66086 34179 ft 396 kts 24°
2026-04-23 10:26 55.08302 16.70149 34179 ft 396 kts 24°
2026-04-23 10:26 55.13295 16.74217 34180 ft 396 kts 24°
2026-04-23 10:27 55.18293 16.78301 34188 ft 396 kts 24°
2026-04-23 10:27 55.23286 16.82392 34176 ft 396 kts 24°
2026-04-23 10:28 55.28266 16.86483 34173 ft 395 kts 24°
2026-04-23 10:28 55.33239 16.90580 34174 ft 395 kts 24°
2026-04-23 10:29 55.38215 16.94691 34173 ft 395 kts 24°
2026-04-23 10:29 55.43151 16.98781 34178 ft 395 kts 24°
2026-04-23 10:30 55.48147 17.02932 34171 ft 395 kts 24°
2026-04-23 10:30 55.53113 17.07070 34171 ft 394 kts 24°
2026-04-23 10:31 55.58072 17.11213 34171 ft 394 kts 24°
2026-04-23 10:31 55.63000 17.15341 34171 ft 395 kts 24°
2026-04-23 10:32 55.67859 17.19888 34173 ft 396 kts 26°
2026-04-23 10:32 55.72651 17.24689 34168 ft 396 kts 27°
2026-04-23 10:33 55.77436 17.29499 34165 ft 396 kts 27°
2026-04-23 10:33 55.82227 17.34301 34166 ft 396 kts 27°
2026-04-23 10:34 55.87028 17.39111 34163 ft 396 kts 27°
2026-04-23 10:34 55.91822 17.43923 34163 ft 396 kts 26°
2026-04-23 10:35 55.96611 17.48743 34157 ft 395 kts 26°
2026-04-23 10:35 56.01400 17.53577 34158 ft 395 kts 26°
2026-04-23 10:36 56.06181 17.58416 34155 ft 395 kts 26°
2026-04-23 10:36 56.10962 17.63269 34155 ft 395 kts 26°
2026-04-23 10:37 56.15743 17.68137 34158 ft 395 kts 26°
2026-04-23 10:37 56.20517 17.73011 34152 ft 395 kts 26°
2026-04-23 10:38 56.25256 17.77864 34149 ft 395 kts 26°
2026-04-23 10:38 56.30058 17.82795 34150 ft 394 kts 26°
2026-04-23 10:39 56.34785 17.87664 34145 ft 394 kts 26°
2026-04-23 10:39 56.39548 17.92583 34147 ft 395 kts 26°
2026-04-23 10:40 56.44317 17.97523 34144 ft 395 kts 26°
2026-04-23 10:40 56.49074 18.02466 34144 ft 395 kts 26°
2026-04-23 10:41 56.53834 18.07425 34142 ft 395 kts 26°
2026-04-23 10:41 56.58591 18.12397 34142 ft 395 kts 26°
2026-04-23 10:42 56.63345 18.17380 34139 ft 395 kts 25°
2026-04-23 10:42 56.68102 18.22381 34135 ft 395 kts 26°
2026-04-23 10:43 56.72858 18.27394 34129 ft 395 kts 26°
2026-04-23 10:43 56.77612 18.32422 34129 ft 395 kts 26°
2026-04-23 10:44 56.82360 18.37458 34134 ft 395 kts 26°
2026-04-23 10:44 56.87111 18.42511 34140 ft 395 kts 25°
2026-04-23 10:45 56.91854 18.47572 34133 ft 395 kts 25°
2026-04-23 10:45 56.96597 18.52646 34135 ft 395 kts 25°
2026-04-23 10:46 57.01339 18.57737 34127 ft 394 kts 25°
2026-04-23 10:46 57.06061 18.62820 34122 ft 393 kts 25°
2026-04-23 10:47 57.10743 18.67875 34129 ft 392 kts 25°
2026-04-23 10:47 57.15476 18.73001 34119 ft 392 kts 25°
2026-04-23 10:48 57.20166 18.78093 34117 ft 391 kts 25°
2026-04-23 10:48 57.24822 18.83165 34117 ft 391 kts 25°
2026-04-23 10:49 57.29502 18.88279 34111 ft 391 kts 25°
2026-04-23 10:49 57.34190 18.93415 34112 ft 391 kts 25°
2026-04-23 10:50 57.38867 18.98555 34109 ft 391 kts 25°
2026-04-23 10:50 57.43550 19.03719 34109 ft 392 kts 25°
2026-04-23 10:51 57.48236 19.08901 34115 ft 392 kts 25°
2026-04-23 10:51 57.52918 19.14093 34111 ft 392 kts 25°
2026-04-23 10:52 57.57601 19.19304 34132 ft 392 kts 25°
2026-04-23 10:52 57.62296 19.24542 34116 ft 394 kts 24°
2026-04-23 10:53 57.66992 19.29796 34110 ft 394 kts 24°
2026-04-23 10:53 57.71696 19.35078 34112 ft 395 kts 24°
2026-04-23 10:54 57.76409 19.40386 34109 ft 395 kts 24°
2026-04-23 10:54 57.81118 19.45705 34104 ft 395 kts 24°
2026-04-23 10:55 57.85832 19.51048 34112 ft 396 kts 24°
2026-04-23 10:55 57.90552 19.56413 34103 ft 396 kts 24°
2026-04-23 10:56 57.95264 19.61786 34102 ft 396 kts 24°
2026-04-23 10:56 57.99949 19.67144 34104 ft 396 kts 24°
2026-04-23 10:57 58.04662 19.72551 34101 ft 396 kts 24°
2026-04-23 10:57 58.09368 19.77967 34099 ft 397 kts 24°
2026-04-23 10:58 58.14078 19.83405 34103 ft 396 kts 24°
2026-04-23 10:58 58.18778 19.88848 34090 ft 396 kts 24°
2026-04-23 10:59 58.23477 19.94308 34093 ft 396 kts 24°
2026-04-23 10:59 58.28172 19.99779 34089 ft 396 kts 24°
2026-04-23 11:00 58.32864 20.05265 34114 ft 396 kts 24°
2026-04-23 11:00 58.37559 20.10770 34095 ft 396 kts 24°
2026-04-23 11:01 58.41459 20.15357 34087 ft 396 kts 24°
2026-04-23 11:01 58.46176 20.20923 34083 ft 396 kts 24°
2026-04-23 11:02 58.50822 20.26420 34082 ft 396 kts 24°
2026-04-23 11:02 58.55502 20.31975 34082 ft 396 kts 24°
2026-04-23 11:03 58.60176 20.37541 34092 ft 396 kts 24°
2026-04-23 11:03 58.64855 20.43132 34080 ft 396 kts 24°
2026-04-23 11:04 58.69528 20.48733 34075 ft 396 kts 24°
2026-04-23 11:04 58.74197 20.54347 34076 ft 396 kts 24°
2026-04-23 11:05 58.78867 20.59980 34071 ft 396 kts 24°
2026-04-23 11:05 58.83537 20.65632 34121 ft 396 kts 24°
2026-04-23 11:06 58.90518 20.74118 34073 ft 394 kts 24°
2026-04-23 11:07 58.95140 20.79755 34071 ft 392 kts 24°
2026-04-23 11:07 58.99742 20.85385 34063 ft 391 kts 24°
2026-04-23 11:08 59.04111 20.91862 34066 ft 404 kts 34°
2026-04-23 11:08 59.07707 21.00516 34066 ft 424 kts 46°
2026-04-23 11:09 59.10769 21.10346 34060 ft 425 kts 47°
2026-04-23 11:09 59.13815 21.20216 34048 ft 425 kts 47°
2026-04-23 11:10 59.16833 21.29921 34049 ft 425 kts 47°
2026-04-23 11:10 59.19897 21.39768 34048 ft 425 kts 47°
2026-04-23 11:11 59.22955 21.49631 34045 ft 425 kts 47°
2026-04-23 11:11 59.26003 21.59521 34069 ft 425 kts 47°
2026-04-23 11:12 59.29060 21.69483 33504 ft 432 kts 47°
2026-04-23 11:12 59.30575 21.74445 32915 ft 429 kts 47°
2026-04-23 11:12 59.32116 21.79502 32290 ft 427 kts 47°
2026-04-23 11:12 59.33620 21.84444 31567 ft 428 kts 47°
2026-04-23 11:13 59.35160 21.89508 30842 ft 428 kts 47°
2026-04-23 11:13 59.36665 21.94458 30109 ft 429 kts 48°
2026-04-23 11:13 59.38192 21.99493 29211 ft 430 kts 48°
2026-04-23 11:13 59.39742 22.04613 28374 ft 430 kts 49°
2026-04-23 11:14 59.41243 22.09588 27542 ft 430 kts 49°
2026-04-23 11:14 59.42767 22.14650 26659 ft 431 kts 49°
2026-04-23 11:14 59.44292 22.19722 25781 ft 433 kts 50°
2026-04-23 11:14 59.45817 22.24811 25109 ft 429 kts 50°
2026-04-23 11:15 59.47325 22.29864 24438 ft 426 kts 50°
2026-04-23 11:15 59.48817 22.34863 23789 ft 423 kts 50°
2026-04-23 11:15 59.50302 22.39846 23072 ft 420 kts 51°
2026-04-23 11:15 59.51747 22.44735 22905 ft 398 kts 50°
2026-04-23 11:16 59.53102 22.49397 22447 ft 389 kts 50°
2026-04-23 11:16 59.54486 22.54066 21205 ft 401 kts 51°
2026-04-23 11:16 59.55901 22.58816 20568 ft 400 kts 51°
2026-04-23 11:16 59.57294 22.63535 19931 ft 397 kts 51°
2026-04-23 11:17 59.58674 22.68240 19352 ft 394 kts 51°
2026-04-23 11:17 59.60037 22.72909 18756 ft 392 kts 51°
2026-04-23 11:17 59.61399 22.77559 18081 ft 391 kts 52°
2026-04-23 11:17 59.62753 22.82191 17405 ft 388 kts 52°
2026-04-23 11:18 59.64091 22.86786 16781 ft 384 kts 52°
2026-04-23 11:18 59.65416 22.91343 16178 ft 381 kts 52°
2026-04-23 11:18 59.66727 22.95861 15584 ft 377 kts 52°
2026-04-23 11:18 59.68025 23.00350 14991 ft 374 kts 52°
2026-04-23 11:19 59.69319 23.04688 14657 ft 365 kts 51°
2026-04-23 11:19 59.70681 23.08925 14423 ft 370 kts 49°
2026-04-23 11:19 59.72114 23.13244 14186 ft 378 kts 49°
2026-04-23 11:19 59.73558 23.17597 13945 ft 378 kts 50°
2026-04-23 11:20 59.74993 23.21956 13692 ft 376 kts 50°
2026-04-23 11:20 59.76414 23.26305 13418 ft 375 kts 50°
2026-04-23 11:20 59.77822 23.30639 13144 ft 374 kts 50°
2026-04-23 11:20 59.79221 23.34965 12668 ft 372 kts 51°
2026-04-23 11:21 59.80605 23.39260 12121 ft 366 kts 51°
2026-04-23 11:21 59.81965 23.43495 11547 ft 362 kts 51°
2026-04-23 11:21 59.83325 23.47738 11237 ft 352 kts 51°
2026-04-23 11:21 59.84593 23.51714 11070 ft 339 kts 51°
2026-04-23 11:22 59.85831 23.55598 10921 ft 326 kts 51°
2026-04-23 11:22 59.87025 23.59346 10782 ft 315 kts 51°
2026-04-23 11:22 59.88179 23.62971 10652 ft 305 kts 51°
2026-04-23 11:22 59.89293 23.66472 10523 ft 295 kts 51°
2026-04-23 11:23 59.90373 23.69870 10405 ft 286 kts 51°
2026-04-23 11:23 59.91418 23.73163 10273 ft 277 kts 51°
2026-04-23 11:23 59.92430 23.76355 10197 ft 269 kts 51°
2026-04-23 11:23 59.93411 23.79454 10064 ft 261 kts 51°
2026-04-23 11:24 59.94367 23.82477 9947 ft 254 kts 51°
2026-04-23 11:24 59.95309 23.85451 9664 ft 253 kts 51°
2026-04-23 11:24 59.96244 23.88409 9401 ft 251 kts 51°
2026-04-23 11:24 59.97129 23.91242 9474 ft 232 kts 51°
2026-04-23 11:25 59.98032 23.94099 8631 ft 255 kts 51°
2026-04-23 11:25 59.99030 23.97231 7625 ft 279 kts 52°
2026-04-23 11:25 60.00089 24.00583 7029 ft 287 kts 53°
2026-04-23 11:25 60.01146 24.03963 6665 ft 286 kts 53°
2026-04-23 11:26 60.02182 24.07290 6398 ft 276 kts 53°
2026-04-23 11:26 60.03171 24.10475 6125 ft 264 kts 53°
2026-04-23 11:26 60.04121 24.13533 5847 ft 254 kts 53°
2026-04-23 11:26 60.05042 24.16499 5577 ft 248 kts 53°
2026-04-23 11:27 60.05952 24.19423 5310 ft 246 kts 53°
2026-04-23 11:27 60.06854 24.22320 5079 ft 245 kts 53°
2026-04-23 11:27 60.07757 24.25224 4813 ft 246 kts 53°
2026-04-23 11:27 60.08658 24.28130 4526 ft 245 kts 53°
2026-04-23 11:28 60.09546 24.31000 4259 ft 243 kts 54°
2026-04-23 11:28 60.10432 24.33868 3990 ft 243 kts 53°
2026-04-23 11:28 60.11328 24.36772 3725 ft 242 kts 53°
2026-04-23 11:28 60.12210 24.39633 3451 ft 241 kts 53°
2026-04-23 11:29 60.13088 24.42487 3233 ft 240 kts 53°
2026-04-23 11:29 60.13966 24.45333 3022 ft 238 kts 53°
2026-04-23 11:29 60.14820 24.48114 2862 ft 229 kts 54°
2026-04-23 11:29 60.15636 24.50782 2674 ft 219 kts 53°
2026-04-23 11:30 60.16425 24.53363 2523 ft 209 kts 53°
2026-04-23 11:30 60.17181 24.55826 2407 ft 207 kts 53°
2026-04-23 11:30 60.17937 24.58291 2336 ft 206 kts 53°
2026-04-23 11:30 60.18683 24.60734 2307 ft 201 kts 53°
2026-04-23 11:31 60.19388 24.63057 2293 ft 188 kts 52°
2026-04-23 11:31 60.20046 24.65218 2288 ft 177 kts 52°
2026-04-23 11:31 60.20714 24.67315 2299 ft 178 kts 46°
2026-04-23 11:31 60.21523 24.69137 2295 ft 173 kts 41°
2026-04-23 11:32 60.22340 24.70891 2318 ft 171 kts 40°
2026-04-23 11:32 60.23156 24.72644 2285 ft 172 kts 41°
2026-04-23 11:32 60.23964 24.74380 2295 ft 168 kts 41°
2026-04-23 11:32 60.24791 24.76158 2024 ft 180 kts 41°
2026-04-23 11:33 60.25617 24.77957 1775 ft 170 kts 41°
2026-04-23 11:33 60.26392 24.79650 1503 ft 158 kts 41°
2026-04-23 11:33 60.27106 24.81215 1386 ft 147 kts 40°
2026-04-23 11:33 60.27797 24.82733 1132 ft 145 kts 42°
2026-04-23 11:34 60.28453 24.84212 948 ft 139 kts 41°
2026-04-23 11:34 60.29101 24.85628 782 ft 138 kts 39°
2026-04-23 11:34 60.29768 24.87058 599 ft 142 kts 40°
2026-04-23 11:34 60.30452 24.88531 418 ft 147 kts 40°
2026-04-23 11:35 60.31144 24.90054 243 ft 146 kts 42°
2026-04-23 11:35 60.31806 24.91524 151 ft 132 kts 43°
2026-04-23 11:35 60.32318 24.92631 169 ft 78 kts 46°
2026-04-23 11:35 60.32541 24.93129 176 ft 24 kts 47°
2026-04-23 11:36 60.32649 24.93367 179 ft 23 kts 47°
2026-04-23 11:36 60.32766 24.93613 180 ft 24 kts 44°
2026-04-23 11:36 60.32876 24.93853 182 ft 23 kts 50°
2026-04-23 11:36 60.32978 24.94091 191 ft 22 kts 48°
2026-04-23 11:37 60.33051 24.94344 188 ft 21 kts 89°
2026-04-23 11:37 60.33037 24.94638 182 ft 21 kts 111°
2026-04-23 11:37 60.32937 24.94838 176 ft 20 kts 140°
2026-04-23 11:37 60.32807 24.94964 175 ft 21 kts 163°
2026-04-23 11:38 60.32669 24.95056 179 ft 21 kts 163°
2026-04-23 11:38 60.32535 24.95145 179 ft 20 kts 162°
2026-04-23 11:38 60.32403 24.95231 177 ft 19 kts 162°
2026-04-23 11:38 60.32290 24.95357 175 ft 19 kts 136°
2026-04-23 11:39 60.32165 24.95592 172 ft 28 kts 137°
2026-04-23 11:39 60.32023 24.95855 172 ft 27 kts 137°
2026-04-23 11:39 60.31886 24.96107 166 ft 27 kts 137°
2026-04-23 11:39 60.31883 24.96387 166 ft 21 kts 49°
2026-04-23 11:40 60.31959 24.96554 166 ft 11 kts 46°
2026-04-23 11:40 60.31961 24.96648 166 ft 7 kts 134°
2026-04-23 11:40 60.31945 24.96680 166 ft 1 kts 137°
2026-04-23 11:40 60.31944 24.96682 166 ft 0 kts 136°